Estación de Tierras Nobles

Ultimos registro cada 15 minutos 75
Estación Fecha / Hora Temperatura Humedad Lluvia Velocidad Dirección Radiación Presion
75 Tierras Nobles 06-05-2026 18:30 11,4 74 0 1,3 215 0 1018
74 Tierras Nobles 06-05-2026 18:15 11,8 73 0 1,3 201 0 1017,6
73 Tierras Nobles 06-05-2026 18:00 12,3 72 0 1,8 209 0 1017,2
72 Tierras Nobles 06-05-2026 17:45 13,2 71 0 2,7 201 11 1017,1
71 Tierras Nobles 06-05-2026 17:30 13,8 71 0 2,2 204 42 1016,8
70 Tierras Nobles 06-05-2026 17:15 14,1 72 0 1,8 200 72 1016,5
69 Tierras Nobles 06-05-2026 17:00 13,9 74 0 0,4 217 62 1016,3
68 Tierras Nobles 06-05-2026 16:45 13,7 75 0 0,9 206 53 1016,2
67 Tierras Nobles 06-05-2026 16:30 14,2 74 0 0,9 221 39 1015,8
66 Tierras Nobles 06-05-2026 16:15 14,8 74 0 0,4 192 62 1015,4
65 Tierras Nobles 06-05-2026 16:00 15,2 73 0 1,8 209 72 1015,1
64 Tierras Nobles 06-05-2026 15:45 16,3 72 0 1,3 209 158 1014,8
63 Tierras Nobles 06-05-2026 15:30 16,7 73 0 1,8 215 285 1014,3
62 Tierras Nobles 06-05-2026 15:15 16,7 72 0 0,9 215 227 1014
61 Tierras Nobles 06-05-2026 15:00 16,8 71 0 0 238 171 1013,6
60 Tierras Nobles 06-05-2026 14:45 17,4 67 0 1,8 208 290 1013,1
59 Tierras Nobles 06-05-2026 14:30 17,3 69 0 0 281 642 1012,7
58 Tierras Nobles 06-05-2026 14:15 16,4 71 0 0,4 267 552 1012,4
57 Tierras Nobles 06-05-2026 14:00 16 73 0 2,2 238 568 1012,1
56 Tierras Nobles 06-05-2026 13:45 15,8 74 0 0,9 292 608 1011,8
55 Tierras Nobles 06-05-2026 13:30 15,2 72 0 2,2 266 550 1011,2
54 Tierras Nobles 06-05-2026 13:15 14,2 58 0 2,2 316 548 1011
53 Tierras Nobles 06-05-2026 13:00 12,6 50 0 0,4 251 545 1010,6
52 Tierras Nobles 06-05-2026 12:45 12,4 45 0 0 348 652 1010,3
51 Tierras Nobles 06-05-2026 12:30 11,8 46 0 0 314 262 1010,2
50 Tierras Nobles 06-05-2026 12:15 11,4 46 0 0 290 200 1009,8
49 Tierras Nobles 06-05-2026 12:00 11,1 47 0 0 6 125 1009,5
48 Tierras Nobles 06-05-2026 11:45 10,7 49 0 0 293 90 1009,4
47 Tierras Nobles 06-05-2026 11:30 11,1 48 0,4 0 257 81 1009
46 Tierras Nobles 06-05-2026 11:15 11,6 46 0 0 13 107 1008,4
45 Tierras Nobles 06-05-2026 11:00 11,6 46 0,4 0 30 88 1008,1
44 Tierras Nobles 06-05-2026 10:45 11,6 46 0 0,9 27 100 1007,8
43 Tierras Nobles 06-05-2026 10:30 11,3 47 0 1,3 29 125 1007,5
42 Tierras Nobles 06-05-2026 10:15 11,1 47 0,4 1,8 47 53 1007,2
41 Tierras Nobles 06-05-2026 10:00 11 47 0,6 0 18 25 1007
40 Tierras Nobles 06-05-2026 09:45 10,9 48 1 0,9 23 19 1006,8
39 Tierras Nobles 06-05-2026 09:30 10,8 48 0,2 0 39 32 1006,5
38 Tierras Nobles 06-05-2026 09:15 10,8 48 1 2,2 303 21 1006,2
37 Tierras Nobles 06-05-2026 09:00 10,8 48 4,4 1,3 28 23 1006,2
36 Tierras Nobles 06-05-2026 08:45 10,8 48 0,8 1,3 38 0 1006,3
35 Tierras Nobles 06-05-2026 08:30 10,8 48 0 5,4 15 14 1005,9
34 Tierras Nobles 06-05-2026 08:15 10,8 48 0,2 4,5 27 7 1005,7
33 Tierras Nobles 06-05-2026 08:00 10,8 48 0,2 4 42 0 1005,6
32 Tierras Nobles 06-05-2026 07:45 10,8 48 0,4 3,1 24 0 1005,7
31 Tierras Nobles 06-05-2026 07:30 10,9 48 1 3,1 30 0 1005,7
30 Tierras Nobles 06-05-2026 07:15 10,8 48 0,4 1,3 63 0 1005,6
29 Tierras Nobles 06-05-2026 07:00 10,8 48 0 1,3 34 0 1005,7
28 Tierras Nobles 06-05-2026 06:45 10,8 48 0 0,9 17 0 1005,7
27 Tierras Nobles 06-05-2026 06:30 10,8 48 0 2,2 9 0 1005,6
26 Tierras Nobles 06-05-2026 06:15 10,7 48 0 2,2 34 0 1005,8
25 Tierras Nobles 06-05-2026 06:00 10,8 48 0,4 1,8 22 0 1005,6
24 Tierras Nobles 06-05-2026 05:45 10,7 48 0,8 1,8 26 0 1005,7
23 Tierras Nobles 06-05-2026 05:30 10,8 48 0,8 0,9 347 0 1005,9
22 Tierras Nobles 06-05-2026 05:15 10,8 48 1,2 0,9 24 0 1005,8
21 Tierras Nobles 06-05-2026 05:00 10,9 48 0,2 1,8 11 0 1005,9
20 Tierras Nobles 06-05-2026 04:45 10,9 48 0 0,9 23 0 1005,9
19 Tierras Nobles 06-05-2026 04:30 10,9 48 0,2 2,2 24 0 1006
18 Tierras Nobles 06-05-2026 04:15 10,9 48 0,2 1,3 16 0 1006,1
17 Tierras Nobles 06-05-2026 04:00 10,9 48 0,2 1,3 21 0 1006,3
16 Tierras Nobles 06-05-2026 03:45 10,8 48 0,2 1,8 20 0 1006,3
15 Tierras Nobles 06-05-2026 03:30 10,8 48 0,2 2,7 24 0 1006,6
14 Tierras Nobles 06-05-2026 03:15 10,8 48 0,6 0,4 24 0 1006,8
13 Tierras Nobles 06-05-2026 03:00 10,8 48 0,2 0 7 0 1007
12 Tierras Nobles 06-05-2026 02:45 10,8 48 0,6 0 18 0 1007
11 Tierras Nobles 06-05-2026 02:30 10,8 48 1,4 0 34 0 1007,2
10 Tierras Nobles 06-05-2026 02:15 10,8 48 1,4 0 9 0 1007,4
9 Tierras Nobles 06-05-2026 02:00 10,8 48 0,8 0,9 26 0 1007,2
8 Tierras Nobles 06-05-2026 01:45 10,8 48 0,6 0 1 0 1007,3
7 Tierras Nobles 06-05-2026 01:30 10,7 48 0,8 0 44 0 1007,2
6 Tierras Nobles 06-05-2026 01:15 10,7 48 0,2 0 30 0 1007,1
5 Tierras Nobles 06-05-2026 01:00 10,6 49 0,6 0 61 0 1007,2
4 Tierras Nobles 06-05-2026 00:45 10,6 49 1 0,4 44 0 1007,6
3 Tierras Nobles 06-05-2026 00:30 10,6 49 1,4 0 16 0 1008,5
2 Tierras Nobles 06-05-2026 00:15 10,6 49 1,8 0 52 0 1008,3
1 Tierras Nobles 06-05-2026 00:00 10,6 49 1,4 0 53 0 1008,6